• In Schweiz
  • Länderverzeichnis
  • Für 7 Tage
  • Wassertemperatur
  • Satellitenkarten
  • Wetterkarte
  • Widgets
  • user-avatar
    Anmelden

    Stündliche Wetter Moklochno

    Heute, 22 Juni, Freitag

    Zeit Temperatur Niederschläge Wind Luftdruck Luftfeuchtigkeit
    00:00 +18°C° 0,9 mm 4 m/S 743 mmHg 94%
    01:00 +17°C° 0,9 mm 5 m/S 743 mmHg 95%
    02:00 +18°C° 0 mm 4 m/S 742 mmHg 96%
    03:00 +17°C° 0,5 mm 5 m/S 742 mmHg 96%
    04:00 +16°C° 0,5 mm 5 m/S 742 mmHg 95%
    05:00 +15°C° 0,5 mm 5 m/S 742 mmHg 95%
    06:00 +15°C° 0 mm 5 m/S 743 mmHg 89%
    07:00 +15°C° 0 mm 5 m/S 743 mmHg 83%
    08:00 +15°C° 0 mm 5 m/S 744 mmHg 73%
    09:00 +16°C° 0 mm 6 m/S 744 mmHg 65%
    10:00 +17°C° 0 mm 6 m/S 744 mmHg 57%
    11:00 +19°C° 0 mm 6 m/S 745 mmHg 49%
    12:00 +19°C° 0 mm 6 m/S 745 mmHg 46%
    13:00 +20°C° 0 mm 7 m/S 745 mmHg 43%
    14:00 +20°C° 0 mm 7 m/S 745 mmHg 42%
    15:00 +20°C° 0 mm 7 m/S 745 mmHg 43%
    16:00 +18°C° 0 mm 7 m/S 745 mmHg 44%
    17:00 +18°C° 0 mm 8 m/S 745 mmHg 45%
    18:00 +17°C° 0 mm 7 m/S 746 mmHg 51%
    19:00 +15°C° 0 mm 6 m/S 747 mmHg 58%
    20:00 +14°C° 0 mm 6 m/S 747 mmHg 64%
    21:00 +12°C° 0 mm 5 m/S 748 mmHg 69%
    22:00 +11°C° 0 mm 4 m/S 749 mmHg 74%
    23:00 +10°C° 0 mm 4 m/S 750 mmHg 79%

    Morgen, 23 Juni, Samstag

    Zeit Temperatur Niederschläge Wind Luftdruck Luftfeuchtigkeit
    00:00 +8°C° 0 mm 4 m/S 750 mmHg 82%
    01:00 +8°C° 0 mm 4 m/S 750 mmHg 85%
    02:00 +9°C° 0 mm 3 m/S 751 mmHg 88%
    03:00 +8°C° 0 mm 4 m/S 751 mmHg 86%
    04:00 +8°C° 0 mm 4 m/S 751 mmHg 84%
    05:00 +10°C° 0 mm 4 m/S 751 mmHg 82%
    06:00 +11°C° 0 mm 4 m/S 752 mmHg 75%
    07:00 +13°C° 0 mm 4 m/S 752 mmHg 67%
    08:00 +15°C° 0 mm 4 m/S 752 mmHg 59%
    09:00 +17°C° 0 mm 3 m/S 752 mmHg 54%
    10:00 +18°C° 0 mm 3 m/S 752 mmHg 49%
    11:00 +19°C° 0 mm 3 m/S 752 mmHg 43%
    12:00 +20°C° 0 mm 3 m/S 752 mmHg 42%
    13:00 +20°C° 0 mm 3 m/S 752 mmHg 41%
    14:00 +21°C° 0 mm 3 m/S 751 mmHg 40%
    15:00 +20°C° 0 mm 2 m/S 751 mmHg 42%
    16:00 +20°C° 0 mm 2 m/S 751 mmHg 43%
    17:00 +20°C° 0 mm 2 m/S 751 mmHg 45%
    18:00 +19°C° 0 mm 2 m/S 751 mmHg 53%
    19:00 +18°C° 0 mm 1 m/S 751 mmHg 61%
    20:00 +16°C° 0 mm 1 m/S 751 mmHg 69%
    21:00 +15°C° 0 mm 1 m/S 751 mmHg 73%
    22:00 +13°C° 0 mm 1 m/S 751 mmHg 77%
    23:00 +12°C° 0 mm 1 m/S 751 mmHg 81%

    übermorgen, 24 Juni, Sonntag

    Zeit Temperatur Niederschläge Wind Luftdruck Luftfeuchtigkeit
    00:00 +12°C° 0 mm 1 m/S 751 mmHg 80%
    01:00 +12°C° 0 mm 2 m/S 751 mmHg 79%
    02:00 +12°C° 0 mm 2 m/S 751 mmHg 78%
    03:00 +12°C° 0,1 mm 2 m/S 750 mmHg 79%
    04:00 +11°C° 0,1 mm 3 m/S 750 mmHg 81%
    05:00 +11°C° 0,1 mm 3 m/S 750 mmHg 82%
    06:00 +10°C° 0,3 mm 3 m/S 749 mmHg 85%
    07:00 +10°C° 0,3 mm 3 m/S 749 mmHg 88%
    08:00 +10°C° 0,3 mm 4 m/S 749 mmHg 91%
    09:00 +10°C° 0,6 mm 4 m/S 748 mmHg 90%
    10:00 +11°C° 0,6 mm 4 m/S 748 mmHg 90%
    11:00 +10°C° 0,6 mm 5 m/S 747 mmHg 89%
    12:00 +9°C° 3,2 mm 5 m/S 747 mmHg 90%
    13:00 +9°C° 3,2 mm 5 m/S 747 mmHg 92%
    14:00 +9°C° 3,2 mm 5 m/S 747 mmHg 93%
    15:00 +9°C° 3 mm 6 m/S 747 mmHg 94%
    16:00 +9°C° 3 mm 6 m/S 747 mmHg 95%
    17:00 +9°C° 3 mm 6 m/S 747 mmHg 96%
    18:00 +9°C° 1,8 mm 6 m/S 747 mmHg 96%
    19:00 +9°C° 1,8 mm 5 m/S 747 mmHg 96%
    20:00 +10°C° 1,8 mm 5 m/S 748 mmHg 96%
    21:00 +10°C° 1,7 mm 5 m/S 748 mmHg 97%
    22:00 +10°C° 1,7 mm 5 m/S 748 mmHg 97%
    23:00 +10°C° 1,7 mm 5 m/S 748 mmHg 97%

    25 Juni, Montag

    Zeit Temperatur Niederschläge Wind Luftdruck Luftfeuchtigkeit
    00:00 +10°C° 1,7 mm 5 m/S 748 mmHg 97%
    01:00 +9°C° 1,7 mm 5 m/S 749 mmHg 97%
    02:00 +9°C° 1,7 mm 5 m/S 749 mmHg 97%
    03:00 +9°C° 0,9 mm 5 m/S 749 mmHg 97%
    04:00 +9°C° 0,9 mm 5 m/S 749 mmHg 97%
    05:00 +9°C° 0,9 mm 5 m/S 749 mmHg 97%
    06:00 +9°C° 0,5 mm 5 m/S 750 mmHg 97%
    07:00 +11°C° 0,5 mm 4 m/S 750 mmHg 96%
    08:00 +11°C° 0,5 mm 4 m/S 750 mmHg 96%
    09:00 +11°C° 0,3 mm 4 m/S 751 mmHg 96%
    10:00 +11°C° 0,3 mm 4 m/S 751 mmHg 95%
    11:00 +12°C° 0,3 mm 4 m/S 752 mmHg 95%
    12:00 +12°C° 0,3 mm 4 m/S 752 mmHg 93%
    13:00 +13°C° 0,3 mm 4 m/S 752 mmHg 91%
    14:00 +14°C° 0,3 mm 3 m/S 752 mmHg 89%
    15:00 +16°C° 0,2 mm 3 m/S 752 mmHg 84%
    16:00 +17°C° 0,2 mm 3 m/S 753 mmHg 78%
    17:00 +18°C° 0,2 mm 3 m/S 753 mmHg 72%
    18:00 +17°C° 0,1 mm 2 m/S 753 mmHg 75%
    19:00 +16°C° 0,1 mm 2 m/S 753 mmHg 79%
    20:00 +15°C° 0,1 mm 2 m/S 753 mmHg 82%
    21:00 +14°C° 0 mm 2 m/S 753 mmHg 84%
    22:00 +13°C° 0 mm 2 m/S 754 mmHg 87%
    23:00 +12°C° 0 mm 2 m/S 754 mmHg 90%

    26 Juni, Dienstag

    Zeit Temperatur Niederschläge Wind Luftdruck Luftfeuchtigkeit
    00:00 +12°C° 0 mm 2 m/S 754 mmHg 92%
    01:00 +12°C° 0 mm 2 m/S 754 mmHg 93%
    02:00 +10°C° 0 mm 2 m/S 754 mmHg 95%
    03:00 +12°C° 0,2 mm 2 m/S 754 mmHg 95%
    04:00 +12°C° 0,2 mm 2 m/S 754 mmHg 95%
    05:00 +12°C° 0,2 mm 2 m/S 754 mmHg 95%
    06:00 +12°C° 0,2 mm 2 m/S 755 mmHg 95%
    07:00 +13°C° 0,2 mm 2 m/S 755 mmHg 94%
    08:00 +13°C° 0,2 mm 2 m/S 755 mmHg 94%
    09:00 +14°C° 0,2 mm 2 m/S 755 mmHg 92%
    10:00 +15°C° 0,2 mm 2 m/S 755 mmHg 90%
    11:00 +15°C° 0,2 mm 2 m/S 756 mmHg 88%
    12:00 +16°C° 0,6 mm 3 m/S 756 mmHg 86%
    13:00 +17°C° 0,6 mm 3 m/S 756 mmHg 84%
    14:00 +17°C° 0,6 mm 4 m/S 756 mmHg 82%
    15:00 +17°C° 0,3 mm 4 m/S 756 mmHg 80%
    16:00 +18°C° 0,3 mm 4 m/S 756 mmHg 78%
    17:00 +18°C° 0,3 mm 4 m/S 756 mmHg 76%
    18:00 +17°C° 0 mm 3 m/S 756 mmHg 78%
    19:00 +16°C° 0 mm 3 m/S 757 mmHg 81%
    20:00 +16°C° 0 mm 2 m/S 757 mmHg 83%
    21:00 +14°C° 0 mm 2 m/S 757 mmHg 87%
    22:00 +13°C° 0 mm 2 m/S 757 mmHg 91%
    23:00 +12°C° 0 mm 2 m/S 757 mmHg 95%

    27 Juni, Mittwoch

    Zeit Temperatur Niederschläge Wind Luftdruck Luftfeuchtigkeit
    00:00 +12°C° 0 mm 2 m/S 758 mmHg 95%
    01:00 +10°C° 0 mm 2 m/S 758 mmHg 95%
    02:00 +10°C° 0 mm 2 m/S 758 mmHg 95%
    03:00 +12°C° 0 mm 2 m/S 758 mmHg 93%
    04:00 +12°C° 0 mm 2 m/S 758 mmHg 92%
    05:00 +13°C° 0 mm 2 m/S 759 mmHg 90%
    06:00 +15°C° 0 mm 2 m/S 759 mmHg 82%
    07:00 +17°C° 0 mm 2 m/S 759 mmHg 74%
    08:00 +18°C° 0 mm 2 m/S 759 mmHg 66%
    09:00 +20°C° 0 mm 3 m/S 759 mmHg 62%
    10:00 +21°C° 0 mm 3 m/S 759 mmHg 57%
    11:00 +22°C° 0 mm 3 m/S 759 mmHg 53%
    12:00 +22°C° 0 mm 4 m/S 759 mmHg 52%
    13:00 +23°C° 0 mm 4 m/S 759 mmHg 51%
    14:00 +23°C° 0 mm 5 m/S 759 mmHg 50%
    15:00 +23°C° 0 mm 4 m/S 759 mmHg 48%
    16:00 +23°C° 0 mm 4 m/S 759 mmHg 47%
    17:00 +22°C° 0 mm 4 m/S 759 mmHg 45%
    18:00 +21°C° 0 mm 3 m/S 759 mmHg 52%
    19:00 +19°C° 0 mm 3 m/S 759 mmHg 60%
    20:00 +18°C° 0 mm 2 m/S 759 mmHg 67%
    21:00 +17°C° 0 mm 2 m/S 760 mmHg 68%
    22:00 +16°C° 0 mm 2 m/S 760 mmHg 70%
    23:00 +15°C° 0 mm 2 m/S 760 mmHg 72%
    Mehr zeigen